| time (UTC) | temp F | wind direction | speed MPH | gust MPH | rain 1hr in | rain 24hr in | rain mn in | humidity % | barometer mb |
| 20260506211506 | 67 | 355 | 2.0 | 11.0 | 0.00 | 0.00 | 0.00 | 54 | 1004.8 |
| 20260506210006 | 67 | 279 | 1.0 | 5.0 | 0.00 | 0.00 | 0.00 | 50 | 1004.5 |
| 20260506204505 | 67 | 207 | 0.0 | 1.0 | 0.00 | 0.00 | 0.00 | 51 | 1004.2 |
| 20260506203016 | 68 | 311 | 0.0 | 0.0 | 0.00 | 0.00 | 0.00 | 51 | 1004.0 |
| 20260506201508 | 68 | 317 | 0.0 | 0.0 | 0.00 | 0.00 | 0.00 | 50 | 1003.8 |
| 20260506200005 | 69 | 317 | 0.0 | 0.0 | 0.00 | 0.00 | 0.00 | 50 | 1003.6 |
| 20260506194505 | 69 | 237 | 0.0 | 0.0 | 0.00 | 0.00 | 0.00 | 49 | 1003.4 |
| 20260506193004 | 70 | 232 | 0.0 | 1.0 | 0.00 | 0.00 | 0.00 | 48 | 1003.1 |
| 20260506191506 | 71 | 111 | 0.0 | 1.0 | 0.00 | 0.00 | 0.00 | 46 | 1002.9 |
| 20260506190006 | 71 | 104 | 0.0 | 3.0 | 0.00 | 0.00 | 0.00 | 45 | 1002.5 |
| 20260506184502 | 72 | 166 | 0.0 | 2.0 | 0.00 | 0.00 | 0.00 | 45 | 1002.4 |
| 20260506183002 | 72 | 254 | 0.0 | 3.0 | 0.00 | 0.00 | 0.00 | 44 | 1002.3 |
| 20260506181502 | 73 | 5 | 0.0 | 3.0 | 0.00 | 0.00 | 0.00 | 43 | 1002.0 |
| 20260506180003 | 74 | 82 | 0.0 | 2.0 | 0.00 | 0.00 | 0.00 | 42 | 1001.7 |
| 20260506174604 | 75 | 271 | 0.0 | 4.0 | 0.00 | 0.00 | 0.00 | 41 | 1001.7 |
| 20260506173115 | 75 | 211 | 0.0 | 4.0 | 0.00 | 0.00 | 0.00 | 39 | 1001.5 |
| 20260506171601 | 76 | 250 | 1.0 | 7.0 | 0.00 | 0.00 | 0.00 | 38 | 1001.6 |
| 20260506170100 | 77 | 178 | 0.0 | 7.0 | 0.00 | 0.00 | 0.00 | 36 | 1001.6 |
| 20260506164558 | 77 | 216 | 0.0 | 5.0 | 0.00 | 0.00 | 0.00 | 35 | 1001.7 |
| 20260506163057 | 78 | 206 | 0.0 | 6.0 | 0.00 | 0.00 | 0.00 | 35 | 1001.8 |
| 20260506161604 | 79 | 188 | 0.0 | 4.0 | 0.00 | 0.00 | 0.00 | 34 | 1001.8 |
| 20260506160057 | 79 | 225 | 0.0 | 6.0 | 0.00 | 0.00 | 0.00 | 33 | 1001.8 |
| 20260506154555 | 80 | 226 | 1.0 | 4.0 | 0.00 | 0.00 | 0.00 | 33 | 1001.9 |
| 20260506153052 | 81 | 336 | 0.0 | 3.0 | 0.00 | 0.00 | 0.00 | 34 | 1002.0 |
| 20260506151605 | 82 | 221 | 0.0 | 3.0 | 0.00 | 0.00 | 0.00 | 33 | 1002.0 |
| 20260506150050 | 81 | 288 | 0.0 | 3.0 | 0.00 | 0.00 | 0.00 | 33 | 1002.0 |
| 20260506144548 | 81 | 281 | 0.0 | 5.0 | 0.00 | 0.00 | 0.00 | 33 | 1002.2 |
| 20260506143052 | 81 | 319 | 0.0 | 2.0 | 0.00 | 0.00 | 0.00 | 32 | 1002.3 |
| 20260506141543 | 80 | 152 | 0.0 | 3.0 | 0.00 | 0.00 | 0.00 | 37 | 1002.2 |
| 20260506140041 | 78 | 96 | 2.0 | 9.0 | 0.00 | 0.00 | 0.00 | 40 | 1002.5 |
| 20260506134538 | 77 | 67 | 1.0 | 5.0 | 0.00 | 0.00 | 0.00 | 41 | 1002.6 |
| 20260506133040 | 77 | 31 | 1.0 | 7.0 | 0.00 | 0.00 | 0.00 | 40 | 1002.8 |
| 20260506131536 | 78 | 179 | 2.0 | 10.0 | 0.00 | 0.00 | 0.00 | 38 | 1003.2 |
| 20260506130035 | 78 | 75 | 3.0 | 10.0 | 0.00 | 0.00 | 0.00 | 39 | 1003.4 |
| 20260506124531 | 78 | 171 | 3.0 | 9.0 | 0.00 | 0.00 | 0.00 | 39 | 1003.8 |
| 20260506123031 | 78 | 91 | 4.0 | 11.0 | 0.00 | 0.00 | 0.00 | 39 | 1003.9 |
| 20260506121529 | 79 | 77 | 4.0 | 11.0 | 0.00 | 0.00 | 0.00 | 39 | 1004.0 |
| 20260506120030 | 78 | 92 | 3.0 | 10.0 | 0.00 | 0.00 | 0.00 | 39 | 1004.3 |
| 20260506114535 | 78 | 97 | 2.0 | 7.0 | 0.00 | 0.00 | 0.00 | 42 | 1004.4 |
| 20260506113022 | 77 | 93 | 2.0 | 10.0 | 0.00 | 0.00 | 0.00 | 43 | 1004.6 |
| 20260506111520 | 76 | 82 | 3.0 | 11.0 | 0.00 | 0.00 | 0.00 | 43 | 1005.0 |
| 20260506110021 | 76 | 171 | 1.0 | 8.0 | 0.00 | 0.00 | 0.00 | 44 | 1005.0 |
| 20260506104520 | 75 | 103 | 1.0 | 7.0 | 0.00 | 0.00 | 0.00 | 44 | 1005.3 |
| 20260506103019 | 76 | 187 | 1.0 | 6.0 | 0.00 | 0.00 | 0.00 | 44 | 1005.7 |
| 20260506101532 | 76 | 173 | 1.0 | 10.0 | 0.00 | 0.00 | 0.00 | 44 | 1005.9 |
| 20260506100015 | 75 | 78 | 2.0 | 8.0 | 0.00 | 0.00 | 0.00 | 45 | 1006.0 |
| 20260506094517 | 75 | 137 | 2.0 | 7.0 | 0.00 | 0.00 | 0.00 | 45 | 1006.2 |
| 20260506093014 | 74 | 148 | 1.0 | 4.0 | 0.00 | 0.00 | 0.00 | 45 | 1006.5 |
| 20260506091517 | 74 | 72 | 1.0 | 9.0 | 0.00 | 0.00 | 0.00 | 43 | 1006.5 |
| 20260506090010 | 75 | 117 | 1.0 | 4.0 | 0.00 | 0.00 | 0.00 | 48 | 1006.6 |
| 20260506084516 | 74 | 130 | 0.0 | 5.0 | 0.00 | 0.00 | 0.00 | 49 | 1006.7 |
| 20260506083005 | 74 | 128 | 0.0 | 2.0 | 0.00 | 0.00 | 0.00 | 48 | 1006.7 |
| 20260506081502 | 73 | 75 | 0.0 | 3.0 | 0.00 | 0.00 | 0.00 | 50 | 1006.8 |
| 20260506073050 | 72 | 172 | 0.0 | 1.0 | 0.00 | 0.00 | 0.00 | 55 | 1007.4 |
| 20260506071600 | 70 | 211 | 0.0 | 3.0 | 0.00 | 0.00 | 0.00 | 57 | 1007.7 |
| 20260506061534 | 66 | 129 | 0.0 | 1.0 | 0.00 | 0.00 | 0.00 | 67 | 1008.0 |
| 20260506044524 | 58 | 236 | 0.0 | 0.0 | 0.00 | 0.00 | 0.00 | 82 | 1008.0 |
| 20260506043020 | 58 | 242 | 0.0 | 2.0 | 0.00 | 0.00 | 0.00 | 82 | 1007.9 |
| 20260506041525 | 57 | 360 | 0.0 | 2.0 | 0.00 | 0.00 | 0.00 | 83 | 1007.9 |
| 20260506040012 | 57 | 310 | 0.0 | 1.0 | 0.00 | 0.00 | 0.00 | 82 | 1007.7 |
| 20260506034509 | 57 | 340 | 0.0 | 0.0 | 0.00 | 0.00 | 0.00 | 82 | 1007.4 |
| 20260506033007 | 58 | 340 | 0.0 | 2.0 | 0.00 | 0.00 | 0.00 | 81 | 1007.2 |
| 20260506031512 | 58 | 329 | 0.0 | 2.0 | 0.00 | 0.00 | 0.00 | 79 | 1007.2 |
| 20260506030007 | 59 | 334 | 0.0 | 0.0 | 0.00 | 0.00 | 0.00 | 79 | 1007.4 |
| 20260506024502 | 59 | 334 | 0.0 | 0.0 | 0.00 | 0.00 | 0.00 | 78 | 1007.5 |
| 20260506023002 | 59 | 333 | 0.0 | 1.0 | 0.00 | 0.00 | 0.00 | 78 | 1007.3 |
| 20260506021600 | 59 | 297 | 0.0 | 1.0 | 0.00 | 0.00 | 0.00 | 77 | 1007.3 |
| 20260506020059 | 59 | 286 | 0.0 | 1.0 | 0.00 | 0.00 | 0.00 | 77 | 1007.3 |
| 20260506014559 | 60 | 227 | 0.0 | 0.0 | 0.00 | 0.00 | 0.00 | 76 | 1007.3 |
| 20260506013057 | 60 | 227 | 0.0 | 0.0 | 0.00 | 0.00 | 0.00 | 76 | 1007.1 |
| 20260506011555 | 60 | 227 | 0.0 | 1.0 | 0.00 | 0.00 | 0.00 | 77 | 1007.0 |
| 20260506010053 | 60 | 360 | 0.0 | 0.0 | 0.00 | 0.00 | 0.00 | 75 | 1006.8 |
| 20260506004555 | 60 | 360 | 0.0 | 0.0 | 0.00 | 0.00 | 0.00 | 75 | 1006.8 |
| 20260506003049 | 60 | 360 | 0.0 | 0.0 | 0.00 | 0.00 | 0.00 | 73 | 1006.8 |
| 20260506001607 | 61 | 360 | 0.0 | 0.0 | 0.00 | 0.00 | 0.00 | 72 | 1006.5 |
| 20260506000047 | 62 | 360 | 0.0 | 0.0 | 0.00 | 0.00 | 0.00 | 70 | 1006.2 |
| 20260505234547 | 62 | 360 | 0.0 | 0.0 | 0.00 | 0.00 | 0.00 | 69 | 1006.0 |
| 20260505233037 | 62 | 5 | 0.0 | 0.0 | 0.00 | 0.00 | 0.00 | 67 | 1005.8 |
| 20260505231541 | 63 | 5 | 0.0 | 0.0 | 0.00 | 0.00 | 0.00 | 65 | 1005.7 |
| 20260505230036 | 63 | 5 | 0.0 | 0.0 | 0.00 | 0.00 | 0.00 | 63 | 1005.7 |
| 20260505224536 | 64 | 5 | 0.0 | 0.0 | 0.00 | 0.00 | 0.00 | 62 | 1005.4 |
| 20260505223033 | 65 | 5 | 0.0 | 0.0 | 0.00 | 0.00 | 0.00 | 59 | 1005.1 |
| 20260505221520 | 66 | 5 | 0.0 | 0.0 | 0.00 | 0.00 | 0.00 | 57 | 1004.9 |
| 20260505220027 | 67 | 320 | 0.0 | 0.0 | 0.00 | 0.00 | 0.00 | 55 | 1004.6 |
| 20260505214524 | 68 | 320 | 0.0 | 0.0 | 0.00 | 0.00 | 0.00 | 53 | 1004.4 |
| 20260505213018 | 68 | 320 | 1.0 | 3.0 | 0.00 | 0.00 | 0.00 | 53 | 1004.3 |